TimeAKDT,TemperatureF,Dew PointF,Humidity,Sea Level PressureIn,VisibilityMPH,Wind Direction,Wind SpeedMPH,Gust SpeedMPH,PrecipitationIn,Events,Conditions,WindDirDegrees,DateUTC
12:53 AM,39.0,30.9,73,30.08,10.0,SSW,29.9,39.1,N/A,,Overcast,210,2013-05-01 08:53:00
1:53 AM,39.0,32.0,76,30.07,10.0,SSW,31.1,40.3,N/A,,Overcast,210,2013-05-01 09:53:00
2:53 AM,39.0,30.9,73,30.05,10.0,SSW,29.9,35.7,N/A,,Overcast,210,2013-05-01 10:53:00
3:53 AM,37.9,32.0,79,30.05,10.0,SSW,24.2,31.1,N/A,,Overcast,200,2013-05-01 11:53:00
4:53 AM,37.9,32.0,79,30.01,10.0,SSW,23.0,28.8,N/A,,Overcast,200,2013-05-01 12:53:00
5:53 AM,37.0,32.0,82,30.01,10.0,SSW,16.1,26.5,0.00,,Overcast,200,2013-05-01 13:53:00
6:53 AM,37.0,32.0,82,29.97,10.0,SSW,18.4,29.9,0.00,,Overcast,210,2013-05-01 14:53:00
7:53 AM,37.0,32.0,82,29.96,10.0,SSW,17.3,23.0,0.00,,Overcast,200,2013-05-01 15:53:00
8:53 AM,37.9,32.0,79,29.94,10.0,SSW,16.1,23.0,N/A,,Overcast,200,2013-05-01 16:53:00
9:53 AM,39.0,32.0,76,29.91,10.0,SSW,16.1,21.9,N/A,,Overcast,200,2013-05-01 17:53:00
10:53 AM,37.0,32.0,82,29.88,10.0,SSW,15.0,26.5,0.00,,Overcast,200,2013-05-01 18:53:00
11:41 AM,35.6,32.0,87,29.87,9.0,SSW,17.3,-,0.01,Rain,Light Rain,210,2013-05-01 19:41:00
11:53 AM,36.0,32.0,86,29.88,6.0,SSW,17.3,-,0.02,Snow,Light Snow,210,2013-05-01 19:53:00
12:53 PM,35.1,32.0,89,29.86,5.0,SSW,15.0,24.2,0.04,Snow,Light Snow,210,2013-05-01 20:53:00
1:53 PM,37.0,33.1,86,29.85,9.0,SSW,15.0,23.0,0.05,Rain,Light Rain,200,2013-05-01 21:53:00
2:53 PM,37.9,33.1,83,29.83,6.0,SSW,20.7,31.1,0.02,Snow,Light Snow,200,2013-05-01 22:53:00
3:22 PM,37.4,33.8,87,29.82,10.0,SSW,21.9,33.4,0.00,,Overcast,200,2013-05-01 23:22:00
3:53 PM,39.0,34.0,82,29.81,10.0,SSW,26.5,34.5,0.00,,Overcast,200,2013-05-01 23:53:00
4:53 PM,39.9,33.1,77,29.79,10.0,SSW,29.9,44.9,0.01,,Overcast,210,2013-05-02 00:53:00
5:53 PM,39.9,34.0,79,29.81,10.0,SSW,23.0,33.4,N/A,,Overcast,200,2013-05-02 01:53:00
6:53 PM,42.1,35.1,76,29.81,10.0,SSW,26.5,36.8,0.00,Rain,Light Rain,200,2013-05-02 02:53:00
7:53 PM,43.0,36.0,76,29.83,10.0,SSW,16.1,25.3,0.00,,Overcast,200,2013-05-02 03:53:00
8:53 PM,43.0,37.0,80,29.83,10.0,SSW,25.3,35.7,N/A,,Overcast,200,2013-05-02 04:53:00
9:53 PM,44.1,37.0,76,29.82,10.0,SSW,34.5,50.6,N/A,,Overcast,210,2013-05-02 05:53:00
10:53 PM,44.1,37.0,76,29.83,10.0,SSW,36.8,48.3,N/A,,Overcast,210,2013-05-02 06:53:00
11:53 PM,45.0,37.9,76,29.85,10.0,SSW,31.1,41.4,N/A,,Overcast,210,2013-05-02 07:53:00